Retour au catalogue

STARLINK-5356

ActifCommunicationsVLEO
NORAD 56418·PAYLOAD·🇺🇸 United States

Lancé May 4, 2023 depuis Cape Canaveral Space Force Station

Loading…

Prochains Passages (prochaines 24 heures)

TLE

FraisSource: CelesTrak SupGP

Époque: Sep 14, 2026, 22:22 UTC

1 56418C 23061AW  26257.93243056 -.00028191  00000+0 -10210-2 0  2575
2 56418  43.0033 190.6576 0001235 263.9498  97.7017 15.27595727    17

Suivez STARLINK-5356 en temps réel avec AllMySat

Download on the App Store